Probability
0 0 0 0 0 0 0 0 0 0 0 0 0 0 0 0 0 0 0 0 0 0 0 0 1 1 1 0 0 0 0 0 0 0 0 0 0 0 0 0 0 0 0
0 0 0 0 0 0 0 0 0 0 0 0 0 0 0 0 0 0 0 0 0 0 0 0 0 0 0 0 0 0 0 0 0 0 0 0 0 0 0 0 0 0 0
0 0 0 0 0 0 0 0 0 0 0 0 0 0 0 0 0 0 0 0 0 0 0 0 0 0 0 0 0 0 0 0 0 0 0 0 0 0 0 0 0 0 0
0 0 0 0 0 0 0 0 0 0 0 0 0 0 0 0 0 0 0 0 0 0 0 0 0 0 0 0 0 0 0 0 0 0 0 0 0 0 0 0 0 0 0
0 0 0 0 0 0 0 0 0 0 0 0 0 0 0 0 0 0 0 0 0 0 0 0 1 0 0 0 0 0 0 0 0 0 0 0 0 0 0 0 0 0 0
0 0 0 0 0 0 0 0 0 0 0 0 0 0 0 0 0 0 0 0 0 0 0 0 0 0 0 0 0 0 0 0 0 0 0 0 0 0 0 0 0 0 0
0 0 0 0 0 0 0 0 0 0 0 0 0 0 0 0 0 1 1 1 1 0 0 0 0 0 0 0 0 0 0 0 0 0 0 0 0 0 0 0 0 0 0
0 0 0 0 0 0 0 0 0 0 0 0 0 0 0 0 0 1 2 2 1 0 0 0 0 0 0 0 0 0 0 0 0 0 0 0 0 0 0 0 0 0 0
0 0 0 0 0 0 0 0 0 0 0 0 0 0 0 0 0 0 1 1 1 0 0 0 0 0 0 0 0 0 0 0 0 0 0 0 0 1 1 1 0 0 0
0 0 0 0 0 0 0 0 0 0 0 0 0 0 0 0 0 0 0 0 0 0 0 0 1 1 0 0 0 0 0 0 0 0 1 1 2 2 2 1 0 0 0
0 0 0 0 0 0 0 0 0 0 0 0 0 0 0 0 0 0 0 0 0 0 0 0 1 1 0 0 0 0 1 0 0 0 1 2 2 2 1 0 0 0 0
0 0 0 0 0 0 0 0 0 0 0 0 0 0 0 0 0 0 0 0 0 0 0 0 1 1 0 0 0 0 0 0 0 0 0 1 1 2 1 1 0 0 0
0 0 0 0 0 0 0 0 0 0 0 0 0 0 0 0 0 0 0 0 0 0 0 0 0 0 0 0 0 0 0 0 0 0 0 0 1 2 2 2 1 0 0
0 0 0 0 0 0 0 0 0 0 0 0 0 0 0 0 0 0 0 0 0 0 0 0 0 0 0 0 0 0 0 0 0 0 0 0 0 1 2 2 1 0 0
0 0 0 0 0 0 0 0 0 0 0 0 0 0 0 0 0 0 0 0 0 0 0 0 0 0 0 0 0 0 0 0 0 0 0 0 0 0 1 1 0 0 0
0 0 0 0 0 0 0 0 0 0 0 0 0 0 0 0 0 0 0 0 0 0 0 0 0 0 0 0 0 0 0 0 0 0 0 0 0 0 0 0 0 0 0
0 0 0 0 0 0 0 0 0 0 0 0 0 0 0 0 0 0 0 0 0 0 0 0 0 0 0 0 0 0 0 0 0 0 0 0 0 0 0 0 0 0 0
0 0 0 0 0 0 0 0 0 0 0 0 0 0 0 0 0 0 0 0 0 0 0 0 0 0 0 0 0 0 0 0 0 0 0 0 0 0 0 0 0 0 0
0 0 0 0 0 0 0 0 0 0 0 0 0 0 0 0 0 0 0 0 0 0 0 0 0 0 0 0 0 0 0 0 0 0 0 0 0 0 0 0 0 0 0
0 0 0 0 0 0 0 0 0 0 0 0 0 0 0 0 0 0 0 0 0 0 0 0 0 0 0 0 0 0 0 0 0 0 0 0 0 0 0 0 0 0 0
0 0 0 0 0 0 0 0 0 0 0 0 0 0 0 0 0 0 0 0 0 0 0 0 0 0 0 0 0 0 0 0 0 0 0 0 0 0 0 0 0 0 0
0 0 0 0 0 0 0 0 0 0 0 0 0 0 0 0 0 0 0 0 0 0 0 0 0 0 0 0 0 0 0 0 0 0 0 0 0 0 0 0 0 0 0
0 0 0 0 0 0 0 0 0 0 0 0 0 0 0 0 0 0 0 0 0 0 0 0 0 0 0 0 0 0 0 0 0 0 0 0 0 0 0 0 0 0 0
0 0 0 0 0 0 0 0 0 0 0 0 0 0 0 0 0 0 0 0 0 0 0 0 0 0 0 0 0 0 0 0 0 0 0 0 0 0 0 0 0 0 0
0 0 0 0 0 0 0 0 0 0 0 0 0 0 0 0 0 0 0 0 0 0 0 0 0 0 0 0 0 0 0 0 0 0 0 0 0 0 0 0 0 0 0
0 0 0 0 0 0 0 0 0 0 0 0 0 0 0 0 0 0 0 0 0 0 0 0 0 0 0 0 0 0 0 0 0 0 0 0 0 0 0 0 0 0 0
Wind_Speed
2 2 1 4 6 7 7 8 8 8 8 9 9 9 9 9 9 9 9 9 9 9 9 9 9 9 9 9 8 8 8 8 7 7 7 7 6 7 6 7 6 3 6
1 1 2 4 5 6 7 7 8 8 8 9 9 9 9 9 10 9 9 9 9 9 9 9 9 9 9 8 8 8 8 8 8 8 8 7 6 6 6 6 5 4 6
1 0 2 5 5 5 6 7 8 8 9 9 9 9 9 9 9 9 9 9 9 9 9 9 9 8 8 8 8 8 8 8 8 8 8 4 4 6 6 6 6 6 6
2 1 2 5 6 6 6 7 7 8 8 9 8 9 9 9 9 8 8 8 9 9 9 8 8 8 8 8 8 8 8 8 8 8 5 4 3 6 6 6 5 6 6
2 1 1 5 5 6 6 7 7 7 8 8 8 8 8 8 8 8 8 8 8 9 8 8 8 9 8 8 8 8 8 8 8 7 4 4 3 5 6 6 6 6 6
2 1 1 4 5 6 6 6 7 7 7 7 7 7 7 7 8 8 8 8 8 8 8 8 8 8 8 8 8 8 8 8 7 4 4 3 3 5 6 6 6 6 6
1 1 1 3 4 5 6 6 6 6 6 6 7 7 7 7 8 8 8 8 8 7 8 8 8 8 8 8 9 9 9 9 6 4 4 3 3 6 7 7 7 6 5
1 1 1 2 3 4 5 5 6 6 5 6 6 6 6 7 6 7 8 8 8 8 8 8 8 8 8 9 9 9 9 8 6 5 4 3 5 7 8 7 7 6 6
1 2 2 2 3 4 4 4 4 4 5 5 5 5 5 5 5 6 6 7 7 7 7 8 8 9 9 9 9 9 10 9 5 3 4 3 5 7 8 7 7 6 6
1 1 1 2 3 3 3 3 3 4 5 5 5 5 5 5 5 5 5 6 7 7 8 9 9 9 9 9 9 10 10 8 5 4 3 3 7 7 7 7 7 7 7
0 1 1 1 2 2 2 3 4 5 5 5 5 6 6 4 4 3 4 6 7 7 8 9 10 10 10 9 10 10 8 4 4 3 3 6 8 7 7 7 7 7 7
1 1 0 0 1 2 2 3 3 3 3 3 3 3 2 3 3 4 6 8 8 9 9 10 11 10 8 5 7 8 4 4 4 3 4 9 9 8 8 7 7 8 8
2 1 1 1 0 1 1 2 2 2 2 3 3 3 2 3 3 4 3 4 5 7 5 6 7 5 5 4 4 4 4 4 3 3 5 9 9 9 9 8 8 8 8
2 1 1 1 1 1 1 1 1 1 2 2 2 2 2 2 3 3 3 3 3 2 3 4 3 4 5 5 5 5 5 4 4 3 5 10 10 10 9 9 8 8 8
2 1 1 2 2 1 1 1 2 2 2 2 2 2 2 2 2 2 2 2 3 2 3 3 4 5 5 5 5 6 6 5 5 5 4 10 11 10 10 9 9 9 8
2 2 2 2 2 2 2 1 1 1 1 1 1 2 2 2 2 2 3 3 3 3 3 3 4 4 4 4 6 6 5 5 5 5 5 7 11 12 12 11 10 10 10
2 2 2 3 2 3 2 2 2 1 2 2 1 2 2 2 2 2 3 3 2 2 4 4 4 4 4 5 5 5 5 5 5 6 5 5 5 10 12 12 11 11 10
3 3 2 3 3 3 3 2 2 2 2 2 1 2 2 2 3 3 3 2 2 3 3 4 3 4 4 4 4 4 4 4 5 5 5 5 5 5 8 12 11 11 11
3 3 3 3 3 3 3 3 3 3 3 2 2 2 2 2 3 3 3 2 3 3 3 3 3 3 4 4 4 4 4 4 5 5 5 6 5 5 5 9 12 12 11
3 4 4 3 3 3 3 3 2 3 2 2 2 2 2 2 3 3 3 3 3 3 3 3 4 3 3 3 4 5 4 4 4 5 5 4 4 5 5 6 6 7 11
3 4 3 3 2 3 2 2 2 1 1 2 2 3 3 3 3 3 3 3 3 3 3 3 3 4 3 2 3 3 3 4 4 4 4 4 5 5 5 5 4 4 5
3 3 3 3 3 2 2 2 2 2 1 1 1 3 3 2 2 3 3 3 3 3 3 3 3 2 2 2 2 2 2 4 3 4 4 4 5 4 5 5 5 5 4
3 3 3 3 3 2 3 2 3 3 2 2 2 2 2 2 2 2 3 3 3 3 2 2 2 3 2 1 1 2 2 1 2 3 3 4 4 4 4 4 5 5 5
3 2 2 3 3 2 3 3 3 2 1 0 0 1 2 3 2 2 3 3 3 2 2 2 2 2 2 1 1 2 1 2 2 1 3 3 3 3 4 3 4 4 4
3 3 2 3 2 2 3 3 3 2 1 1 1 2 2 2 2 2 2 2 2 2 2 2 2 2 2 2 1 1 2 2 2 2 1 3 3 2 2 3 3 3 3
2 3 2 3 2 2 3 3 3 3 2 2 1 2 1 1 2 2 2 2 2 2 2 2 2 2 2 2 1 1 2 2 1 2 1 1 2 3 2 2 2 3 2
Wind_Direction
285 280 36 83 79 77 73 72 70 70 73 74 75 75 75 77 82 82 83 85 83 83 83 82 84 86 83 81 80 80 78 77 78 82 83 79 78 82 84 90 85 73 87
197 282 106 91 87 83 80 77 73 71 74 71 72 72 73 75 77 80 83 84 83 81 79 77 78 82 81 79 79 79 77 76 76 75 73 67 69 78 85 89 93 90 87
119 54 94 96 89 86 83 80 76 74 74 74 72 72 71 71 74 74 78 80 81 80 78 75 73 75 76 78 78 77 76 75 73 71 62 42 52 74 82 84 88 91 89
129 86 95 101 91 86 83 82 80 78 77 77 76 72 71 69 68 72 78 80 80 78 78 76 72 70 71 71 74 76 76 73 70 66 50 31 38 66 76 82 87 86 85
111 78 105 101 89 84 83 86 84 81 79 78 76 73 71 69 66 69 74 78 78 76 74 72 71 72 69 68 68 71 74 71 68 58 45 35 29 59 65 73 79 84 79
111 79 84 99 88 82 82 83 87 82 81 78 76 77 72 69 63 70 71 72 73 72 69 67 67 68 68 68 68 70 69 71 62 50 44 35 29 52 61 65 76 81 74
127 81 79 102 91 85 84 83 83 80 77 77 78 79 74 68 64 70 68 67 67 71 70 68 68 70 68 67 68 70 73 75 63 50 40 30 38 55 60 65 75 77 71
120 68 41 86 89 84 86 82 80 78 77 77 74 72 70 65 63 63 62 61 62 68 71 70 70 71 70 68 67 69 73 70 60 50 38 28 50 60 60 62 68 70 65
55 54 33 26 35 50 61 70 73 71 70 70 69 67 67 63 57 60 61 63 64 66 70 71 73 72 74 70 68 69 69 63 52 38 40 29 54 60 59 58 58 56 54
50 41 38 28 27 25 17 35 58 62 66 64 59 54 52 44 40 46 45 57 67 70 71 72 72 71 72 71 70 67 62 52 39 33 23 40 55 58 60 56 54 53 53
77 353 13 26 19 18 4 24 31 37 43 44 39 40 42 32 25 28 36 56 65 69 70 71 70 68 68 65 68 64 55 39 33 28 23 49 51 55 59 57 54 53 54
217 245 258 332 2 10 12 30 22 27 32 34 32 35 38 38 34 41 38 51 57 63 63 66 68 64 60 49 52 54 43 38 35 26 40 48 44 50 55 54 53 54 54
202 213 215 196 60 32 20 21 21 21 26 28 33 36 46 49 43 42 39 37 40 52 49 52 54 52 53 50 48 47 45 44 34 26 36 47 44 47 52 51 53 55 52
170 203 200 159 116 55 50 32 32 34 32 33 28 36 56 57 52 48 47 41 43 46 57 55 58 57 57 51 52 52 49 46 35 25 32 43 44 43 45 46 51 55 52
157 178 171 137 121 92 71 44 57 48 50 40 34 43 73 79 73 64 56 52 52 55 65 65 66 65 61 55 52 53 51 46 38 32 22 37 41 40 41 45 50 53 52
160 166 147 130 128 108 93 79 56 52 55 50 42 55 78 91 92 85 73 64 57 60 69 72 74 71 64 61 55 50 48 45 40 35 29 27 34 38 39 45 52 54 52
157 149 144 137 116 110 101 81 65 51 62 54 40 56 76 88 97 96 87 76 65 70 76 73 68 66 66 63 55 47 45 43 41 35 31 26 20 30 36 44 51 52 53
134 134 143 135 121 114 100 83 65 60 63 53 46 57 74 89 103 98 91 82 77 75 79 80 71 72 64 60 53 41 38 38 37 36 36 30 25 23 26 37 45 48 50
137 132 125 113 114 108 97 85 71 65 58 43 46 52 70 91 99 100 95 88 86 82 76 86 71 82 82 71 66 51 38 38 32 36 34 31 28 27 25 29 36 40 43
125 119 113 102 95 97 88 76 62 54 42 39 44 50 71 85 94 98 95 88 88 89 80 85 86 74 82 79 73 57 39 37 37 33 27 25 26 29 28 29 25 25 35
122 120 122 119 113 109 94 90 81 58 17 25 34 48 61 74 89 97 99 91 90 97 106 109 103 87 69 67 72 45 24 33 39 31 22 24 24 22 27 28 25 23 21
142 135 131 134 135 136 127 120 117 113 81 46 27 43 45 63 83 108 107 106 102 103 97 97 105 99 65 46 86 79 25 3 6 21 20 28 20 17 24 26 27 27 22
161 164 156 154 144 135 127 104 80 61 47 34 25 22 19 48 72 95 111 110 108 113 121 118 120 120 113 44 65 121 124 206 326 347 9 18 14 18 12 14 25 24 24
189 172 149 140 136 134 131 127 127 123 120 171 118 46 40 44 55 79 102 108 105 105 116 132 126 119 125 112 53 57 110 148 136 350 341 354 10 17 8 12 11 12 15
172 156 147 133 132 135 137 141 134 127 135 103 74 71 52 38 46 66 90 102 105 106 113 106 104 106 119 135 136 118 85 69 95 127 327 331 348 350 357 358 358 357 359
150 140 140 136 140 144 146 149 151 153 150 131 116 99 62 32 27 42 80 92 103 102 107 110 108 105 103 107 113 123 142 142 154 137 160 285 324 319 337 354 359 346 346